Weather Roundup
Issued by NWS

Home | Current Version | Previous Version | Text Only | Print | Product List | Glossary On
Versions: 1 2 3 4 5 6 7 8 9 10 11 12 13 14 15 16 17 18 19 20 21 22 23 24 25 26 27 28 29 30 31 32 33 34 35 36 37 38 39 40 41 42 43 44 45 46 47 48 49 50
000
NZUS93 KARX 012010
HRRWXR

CURRENT HOURLY OBSERVATIONS ACROSS
MUCH OF THE UPPER MISSISSIPPI VALLEY
NATIONAL WEATHER SERVICE LA CROSSE WI
300 PM CDT TUE SEP 01 2015


...SOUTHEAST MINNESOTA...


CITY           SKY/WX    TMP DP  RH WIND       PRES   REMARKS
ROCHESTER      MOSUNNY   85  74  69 S12       29.94S HX  92
ROCHESTER/MAYO FAIR      86  71  60 S12       29.93S HX  92
WINONA         MOSUNNY   90  72  55 SE5       29.91S HX  96
AUSTIN         PTSUNNY   84  73  70 S9        29.93F HX  91
ALBERT LEA     MOSUNNY   84  72  65 S8        29.94R
DODGE CENTER   PTSUNNY   82  73  74 S10       29.94R
PRESTON        MOSUNNY   85  71  64 S13       29.95S HX  90
OWATONNA       PTSUNNY   84  73  70 S7        29.92S HX  91
FARIBAULT      PTSUNNY   88  75  66 S7        29.91S HX  97
$$

...ELSEWHERE IN MINNESOTA...


CITY           SKY/WX    TMP DP  RH WIND       PRES   REMARKS
MINNEAPOLIS    CLOUDY    84  72  67 SE5       29.89S
INTNL FALLS    SUNNY     80  48  32 VRB5      29.89F
DULUTH         MOSUNNY   83  62  49 SW3       29.91S
RED WING       PTSUNNY   88  72  58 SE6       29.89S HX  94
REDWOOD FALLS  CLOUDY    82  72  71 S7        29.89S
MANKATO        PTSUNNY   84  72  65 S12       29.91R
WORTHINGTON    CLOUDY    81  70  69 S5        29.91F
FAIRMONT       PTSUNNY   82  68  61 S10       29.92R
$$

...SOUTHWEST WISCONSIN...


CITY           SKY/WX    TMP DP  RH WIND       PRES   REMARKS
LA CROSSE      SUNNY     89  73  59 S13       29.91F HX  97
PRAIRIE DU CHI SUNNY     87  70  56 SE9       29.94F HX  92
BOSCOBEL       SUNNY     91  72  53 S9G17     29.95S HX  98
LONE ROCK      SUNNY     88  72  58 SW13      29.96F HX  94
PLATTEVILLE    SUNNY     86  74  68 S15       29.98F HX  94
FORT MC COY    MOSUNNY   88  68  51 S7        29.94F HX  92
CAMP DOUGLAS   MOSUNNY   88  73  62 S12       29.94F HX  96
VIROQUA          N/A     86  71  61 S8        29.97F HX  92
WIS DELLS      MOSUNNY   88  67  49 SW10      29.96F HX  91
$$

...ELSEWHERE IN WISCONSIN...


CITY           SKY/WX    TMP DP  RH WIND       PRES   REMARKS
MILWAUKEE      PTSUNNY   88  68  51 SW14      29.97F HX  91
MADISON        PTSUNNY   87  69  54 SW9G17    29.96F HX  91
GREEN BAY      MOSUNNY   87  73  62 SW9       29.94F HX  94
EAU CLAIRE     MOSUNNY   86  71  60 S7        29.91S HX  91
BLACK RVR FLS  FAIR      89  69  50 S10       29.92F HX  93
MEDFORD        CLOUDY    80  70  71 SW6       29.96S
WAUSAU         MOSUNNY   84  68  58 S7        29.94F
WIS RAPIDS     MOSUNNY   88  67  49 SW10      29.96F HX  91
MARSHFIELD     PTSUNNY   87  68  52 SW10      29.95F HX  90
RICE LAKE      PTSUNNY   82  70  66 S8        29.94R
$$

...NORTHEAST IOWA...


CITY           SKY/WX    TMP DP  RH WIND       PRES   REMARKS
DECORAH        SUNNY     84  73  70 S12       29.95S HX  91
MASON CITY       N/A     84  72  67 S14       29.96R
CHARLES CITY   PTSUNNY   84  75  74 S12       29.96S HX  92
OELWEIN        SUNNY     84  75  74 S10G17    29.97F HX  92
$$

...ELSEWHERE IN IOWA...


CITY           SKY/WX    TMP DP  RH WIND       PRES   REMARKS
DES MOINES     CLOUDY    90  71  53 S13       29.96S HX  96
IOWA CITY      SUNNY     89  72  56 SW8       29.98F HX  96
FORT DODGE     CLOUDY    84  72  65 S12       29.95F
$$

...NORTHERN ILLINOIS...


CITY           SKY/WX    TMP DP  RH WIND       PRES   REMARKS
CHICAGO-OHARE  PTSUNNY   88  72  58 SW7G18    30.00F HX  94
CHICAGO-MIDWAY MOSUNNY   88  71  57 SW12      30.01F HX  94
MOLINE         SUNNY     91  71  51 SW9       29.98F HX  97
ROCKFORD       MOSUNNY   89  70  53 SW14      30.00F HX  94
PEORIA         SUNNY     95  64  35 W13       30.02F HX  97
$$

NOTE: "FAIR" INDICATES FEW OR NO CLOUDS BELOW 12,000 FEET WITH NO
SIGNIFICANT WEATHER AND/OR OBSTRUCTIONS TO VISIBILITY. WIND
SPEEDS ARE IN MILES-PER-HOUR.



USA.gov is the U.S. government's official web portal to all federal, state and local government web resources and services.